Reflectivity
1 -20 -14 12 9 12 -8 9 -7 -4 7 -20 -20 -20 16 -17 -20 -20 -18 -20 -20 -20 -20 -20 -8 -20 15 18 14 -9 -20 -20 -20 -1 -3 -6 -4 -20 -20 -20 -20 -20 -20 -20 -20
-20 11 8 10 -20 13 -17 -20 -20 -20 5 8 -20 -4 -20 16 -20 -18 -17 -20 -20 -20 -20 -20 -1 -6 -3 18 18 19 -20 -20 -20 10 12 5 -9 -20 -20 -20 -20 -20 -20 -20 -2
14 13 8 6 11 8 6 -18 -20 5 -20 -20 -10 8 10 14 3 -20 -18 -14 -12 -20 -20 -20 -1 -11 12 13 5 5 -20 -20 -5 9 14 7 -19 -20 -20 -20 -20 -20 -20 -20 -20
8 15 11 13 8 9 12 13 -8 -20 -20 -16 -12 10 12 16 -10 -20 2 -11 12 -5 -20 10 14 9 14 5 5 9 -2 -20 -0 17 11 11 -20 -20 -20 -20 -20 -20 -20 -20 -20
8 -3 -20 1 -20 -20 -20 -20 10 13 11 13 -15 -20 6 7 -3 -20 -20 -20 -17 2 -10 13 12 -2 6 3 21 19 -20 -14 1 22 -9 4 -20 -20 -20 -20 -19 -20 -20 -20 -20
9 -19 10 10 -20 -20 -20 -20 -20 -20 -20 -20 18 20 9 5 -20 -20 -20 -20 -20 3 15 12 -1 4 13 14 13 -9 13 21 15 34 -11 -4 -20 -20 -20 -20 -17 -20 -20 -20 -17
9 5 9 -19 -5 -20 -20 -20 -20 -20 -20 -2 11 10 -2 -2 -20 -20 -20 -20 -20 -20 -18 23 19 15 1 8 5 10 16 24 20 28 34 -2 -20 -20 -20 -20 -20 -20 -20 -20 -20
-11 13 -7 -20 -19 -5 -20 -20 -20 -20 -20 4 14 9 11 -20 -20 -20 -20 -20 -20 -20 -20 -20 4 7 -11 -3 -5 8 26 19 -7 -6 -3 29 -16 -20 -20 -20 -20 -20 -20 -20 -20
-20 -9 4 -20 1 -12 -20 -20 -20 -20 -20 -19 4 13 5 -20 -20 -20 -20 -20 -20 -20 -20 -20 26 8 6 12 9 21 -1 -11 -20 -20 -20 9 3 -20 -20 -20 -4 -18 -20 -20 -20
14 -4 -19 -20 -20 -20 -20 -20 -20 -20 -20 -20 -20 -7 -20 -20 -20 -20 -20 -14 -20 -20 -20 -20 14 -11 -12 19 19 30 -20 -20 -20 -20 -20 -20 -20 10 -20 -20 -13 -16 -20 -20 -20
-18 -20 -6 -20 -20 -20 -20 -20 -20 -10 -20 -20 -20 -10 -20 -20 -20 -19 2 -20 -20 -20 -3 12 18 12 -20 -17 -20 4 -20 -20 -20 -20 -20 -20 -20 -1 12 -20 -20 -20 -20 -20 -20
-13 6 -12 -19 -20 -20 -20 -20 -2 -1 -13 -20 -20 -20 -20 -20 -20 -20 -17 -4 -11 15 2 5 3 -20 -15 1 17 -2 -3 -8 -20 -5 -20 -20 -20 9 6 -20 -20 -19 -20 -20 -20
-7 -11 -13 -20 -20 -20 -20 -20 -20 -10 2 -20 -20 -20 -16 -20 -20 -20 -20 -20 -20 16 20 3 -5 7 14 20 14 10 40 -8 -20 -18 -20 -20 -20 -2 5 -9 -20 -16 -19 -20 -20
-3 -4 4 -19 -20 -20 -20 -20 -20 -20 -20 -20 -20 2 -20 -20 -20 -20 -20 -20 2 -1 16 3 -8 18 10 1 21 33 35 26 12 9 9 -20 -20 -20 -19 -7 -20 -20 -20 -20 -20
4 -20 -5 5 -20 -20 -20 -20 -20 -20 -20 -20 -20 -5 -20 -20 -20 -13 -20 -20 -20 -0 6 8 -20 31 30 -20 -2 24 13 8 1 12 -17 -20 -20 -20 -20 -20 -20 -20 -20 -20 -20
-5 -20 -20 -20 -20 -20 -20 -20 -20 -20 -20 -20 -20 -20 -20 0 -7 -5 7 3 -20 17 23 -20 -20 13 19 10 15 -18 7 18 37 23 19 -16 -20 -20 -20 -20 -20 -20 -20 -20 -20
-20 -20 -20 -20 -20 -20 -20 -20 -20 -20 -20 -20 -20 -20 -20 -20 -9 23 33 28 -9 7 15 -20 -20 -20 -3 24 32 37 16 18 29 27 21 -20 -20 -20 -20 -20 -20 -20 -20 -20 -19
-20 -20 -20 -20 -20 -20 -20 -20 -20 -20 -20 -20 -20 -20 -20 -20 6 -1 7 17 32 13 23 3 11 8 10 28 30 40 23 24 21 17 11 -18 -20 -20 -20 -20 -20 -20 -20 -20 -20
-20 -20 -20 -20 -20 -20 -20 -20 -20 -20 -4 -20 -20 -20 -20 -1 18 9 -17 -14 -14 30 12 24 -18 -20 -18 -20 19 19 29 26 5 -15 -20 -20 -20 -20 -20 -20 -20 -20 -20 -20 -20
-20 -20 -20 -20 -20 -20 -20 -20 -20 -20 -20 -20 1 -20 2 -16 -19 17 7 12 7 4 20 23 20 -16 -20 -16 3 22 30 19 15 16 -17 -20 -20 -20 -20 -20 -20 -20 -20 -20 -20
-20 -20 -20 -20 -20 -20 -20 -20 -20 -20 -20 -20 -20 -14 -20 11 1 9 21 11 4 -8 6 2 21 18 -18 6 -20 14 22 28 9 -20 -20 -20 -20 -20 -20 -20 -20 -20 -20 -20 -20
-20 -20 -20 -20 -20 -20 -20 -20 -20 -20 -20 -20 -20 -20 9 -20 -20 -20 13 19 20 26 21 24 18 15 -18 -20 -20 -20 -20 -15 -19 -20 -20 -20 -20 -20 -20 -20 -20 -20 -20 -20 -20
-20 -20 -20 -20 -20 -20 -20 -20 -20 -20 -20 -20 -20 -18 -19 -16 -14 -20 -20 -0 24 29 24 24 19 15 11 -12 -11 5 -17 -20 -20 -20 -20 -20 -20 -20 -20 -20 -20 -20 -20 -20 -20
-20 -20 -20 -20 -20 -20 -20 -20 -18 -20 -20 -20 -20 -14 -20 -20 -20 -20 11 10 23 20 20 8 6 12 -9 -20 -20 -20 -20 -20 -20 -20 -20 -20 -20 -20 -20 -20 -20 -20 -20 -20 -20
-20 -20 -20 -20 -20 -20 -20 -20 -20 -7 -20 -20 -20 -19 1 -3 -20 -20 -12 -19 -13 -1 -15 -0 -19 -15 20 -10 -20 -20 -20 -20 -20 -20 -19 -20 -20 -20 -20 -20 -20 -20 -20 -20 -20
-20 -20 -20 -20 -20 -20 -20 -20 -20 -20 -5 -20 -4 -20 -20 6 12 -10 1 -15 -4 15 21 -2 -7 -20 -20 -20 -19 -20 -20 4 10 -20 -20 -20 -20 -20 -20 -20 -20 -20 -20 -20 -20
-20 -20 -20 -20 -20 -20 -20 -20 -20 -20 -20 -19 -20 -8 -20 -2 -20 -20 -20 -20 5 16 -18 -12 -20 -20 -20 -20 -20 -20 -20 -7 -20 -20 -20 -20 -20 -20 -20 -19 -20 -20 -20 -20 -20
Wind_Speed
18 17 16 16 16 16 15 16 17 18 17 18 18 20 18 17 17 9 17 11 8 18 13 5 2 5 4 5 5 4 3 6 7 8 3 2 4 3 1 10 3 3 7 8 18
17 17 16 18 19 17 16 17 18 17 18 18 18 18 20 18 12 17 16 21 21 19 8 9 6 7 5 6 7 7 9 9 5 4 1 4 2 5 5 5 2 3 5 21 20
18 18 18 17 17 16 17 17 18 18 19 19 19 18 17 13 8 10 15 16 19 20 10 7 4 6 8 5 7 7 13 6 3 2 5 3 3 4 7 5 8 13 23 22 19
19 17 18 18 19 20 19 19 20 20 20 20 19 18 17 3 11 3 8 24 18 9 13 9 9 9 8 12 9 6 17 11 7 1 1 3 7 5 5 5 6 19 27 26 21
19 18 18 19 19 22 22 22 22 22 21 20 19 18 10 11 15 18 28 19 15 6 18 14 15 15 20 17 8 12 3 19 5 4 4 5 5 4 6 5 11 16 23 25 22
18 19 18 18 20 22 22 23 23 24 23 22 20 17 8 25 1 10 9 7 8 7 13 16 6 11 7 7 17 8 12 7 15 7 6 4 4 3 2 7 12 20 22 20 21
19 19 19 20 20 21 23 24 25 25 25 24 21 12 13 20 13 18 18 9 6 8 8 10 14 11 8 11 11 4 9 13 8 6 6 2 7 7 3 6 12 15 14 17 14
20 19 19 20 21 22 24 26 28 29 28 25 22 11 15 3 8 16 18 16 10 12 13 14 11 10 6 5 2 13 4 7 14 10 6 7 14 6 7 11 8 9 9 12 12
20 20 19 21 22 23 25 28 29 28 24 18 10 8 10 3 6 10 11 15 12 9 6 12 8 8 6 10 6 7 10 15 1 17 6 14 9 9 8 12 10 8 9 11 10
18 19 20 21 22 23 26 24 23 15 7 1 2 3 6 6 4 3 2 6 8 7 6 8 9 9 11 15 17 9 13 11 15 8 16 12 6 2 9 9 12 11 10 11 13
19 20 21 22 22 22 13 6 7 6 5 5 10 8 12 1 5 6 4 1 3 6 12 13 12 20 28 27 20 13 12 5 12 7 9 16 13 7 7 6 8 10 13 12 13
19 20 20 21 21 21 3 3 6 5 15 8 15 13 17 8 8 20 2 2 4 13 11 7 22 31 15 18 21 20 13 14 2 9 9 9 13 9 9 7 12 14 13 14 10
19 18 19 20 19 4 3 4 5 2 5 8 4 5 5 6 8 8 11 12 10 11 12 19 12 13 17 17 22 24 15 15 12 6 4 6 3 6 8 6 7 10 12 14 18
20 19 17 16 5 4 5 4 5 2 3 8 4 5 2 5 7 7 14 6 6 10 12 15 15 14 19 24 18 17 17 8 12 12 9 5 6 10 15 8 8 11 11 14 15
18 17 16 13 3 3 6 6 4 4 5 7 5 3 10 4 8 5 6 3 10 5 7 14 8 15 14 26 20 7 15 12 11 3 6 2 3 5 3 16 17 15 12 13 16
18 17 16 3 1 6 7 5 4 9 6 7 6 17 12 6 3 5 3 7 4 3 10 10 6 8 12 9 15 8 12 8 3 5 7 9 7 5 7 11 7 6 12 15 15
19 18 7 1 4 6 4 5 7 7 5 8 15 17 17 6 6 4 2 3 4 5 8 10 10 4 17 12 9 9 10 8 6 6 4 8 5 8 5 7 9 17 15 16 17
17 11 5 1 5 4 4 7 8 5 6 7 10 19 5 6 3 6 4 4 6 1 3 9 11 9 6 8 5 6 6 2 4 5 4 3 8 7 8 8 8 6 7 7 11
8 4 3 4 6 3 6 7 7 4 5 9 16 4 5 4 4 6 2 4 4 6 4 2 10 4 6 6 11 7 5 2 7 2 5 4 5 8 7 7 6 9 6 9 11
2 3 3 7 4 5 7 3 3 4 6 3 4 4 6 9 9 9 2 2 4 7 5 3 2 2 3 5 3 7 7 3 3 3 2 2 3 6 3 2 2 5 9 10 7
4 4 4 7 4 6 4 5 6 7 6 3 3 6 6 6 13 7 9 4 7 4 3 3 1 2 6 1 7 3 5 4 5 3 5 4 5 5 4 4 5 9 7 9 9
2 3 4 4 6 1 1 3 7 6 3 4 4 4 4 13 5 4 7 4 10 2 3 3 1 4 5 1 2 2 6 6 6 3 1 3 4 0 3 6 6 7 6 4 6
2 2 4 3 4 4 5 5 4 5 6 5 5 6 7 5 6 3 8 9 12 4 1 4 2 3 5 3 4 4 2 6 5 3 2 5 3 2 4 5 6 5 6 3 6
3 4 6 5 0 3 4 4 7 6 5 4 4 4 7 4 3 6 6 7 10 7 8 3 2 3 3 6 6 4 1 3 6 4 6 4 3 2 6 5 4 5 5 5 4
3 3 3 5 5 2 2 1 7 7 4 5 4 8 11 4 6 5 5 8 3 12 5 4 2 3 3 4 4 4 5 3 6 6 7 5 5 3 1 2 3 3 4 6 7
2 3 4 3 4 4 6 4 5 6 4 6 5 13 11 5 4 12 14 7 4 8 5 3 3 2 5 5 4 6 8 3 2 4 4 5 6 6 3 2 2 5 5 5 6
1 1 1 5 4 3 2 5 7 4 7 6 10 12 6 6 12 16 12 13 12 6 4 3 2 3 1 2 6 3 13 10 3 3 8 5 7 4 2 2 1 3 4 5 7
Wind_Direction
340 335 334 333 331 328 333 330 331 331 327 325 323 320 322 316 312 297 261 240 225 251 248 328 179 189 212 209 182 163 164 213 212 183 231 138 191 120 87 127 148 174 162 166 145
332 334 332 335 332 335 338 332 328 324 321 319 316 315 315 319 307 274 253 252 254 250 203 201 201 179 214 201 205 186 211 206 194 176 208 314 203 173 127 135 100 68 71 134 144
333 342 342 334 331 327 325 323 321 319 316 314 312 314 315 325 307 260 249 245 248 235 221 191 157 203 226 170 205 208 223 210 227 200 28 295 330 318 140 234 188 172 151 152 153
330 338 338 339 340 335 328 320 315 310 306 306 307 311 313 334 261 265 136 349 333 261 201 191 188 191 218 201 193 237 228 210 227 126 79 353 313 328 190 239 163 155 158 158 166
335 339 337 335 334 332 326 320 314 308 303 301 300 306 310 256 247 293 307 345 324 307 201 194 201 196 215 205 200 220 276 215 226 284 284 324 278 262 282 12 132 140 158 168 171
337 336 333 333 331 329 322 317 311 305 301 298 295 291 278 266 305 296 326 356 332 340 220 196 217 226 250 223 207 204 220 211 216 230 270 262 289 167 10 120 136 151 169 173 173
337 335 334 334 330 327 323 317 310 305 299 293 287 283 257 256 305 290 285 281 277 300 312 249 222 185 166 229 241 251 202 208 210 181 223 205 277 224 162 131 157 167 169 173 170
335 333 334 333 327 324 322 317 310 300 293 289 279 267 264 264 274 262 268 276 275 266 257 269 259 233 242 334 256 212 235 178 216 192 206 142 257 213 166 145 173 175 162 173 178
335 333 332 330 327 325 324 318 306 299 301 293 272 232 273 280 247 248 232 247 268 278 252 253 245 231 207 221 220 181 217 204 297 203 158 176 227 212 170 169 172 187 176 179 167
331 334 331 327 326 326 325 318 304 312 324 76 127 116 256 240 246 265 213 219 230 250 263 214 215 209 205 210 213 202 199 203 200 188 195 202 220 189 170 169 182 180 191 187 178
334 330 327 324 324 328 337 340 356 334 78 224 256 272 284 277 298 245 219 36 252 207 212 194 211 209 208 211 212 217 214 161 210 184 156 214 208 204 168 178 190 189 187 195 188
328 327 327 327 323 330 28 15 352 279 305 242 251 248 258 247 276 259 160 186 247 231 202 241 213 218 219 210 211 213 211 198 133 178 181 186 213 205 202 207 194 197 195 191 181
333 330 329 331 326 18 298 246 317 322 283 307 239 248 235 159 232 278 188 190 212 237 220 221 230 208 211 215 220 220 214 186 184 130 48 111 270 206 236 200 191 207 198 185 183
331 329 328 337 24 313 302 290 335 138 12 283 299 279 280 231 262 215 193 166 182 230 195 246 249 252 205 216 212 201 206 201 183 158 188 179 246 221 218 212 207 201 190 190 188
341 337 337 341 258 312 263 328 301 61 18 302 297 247 309 218 314 329 153 52 189 179 193 210 221 211 235 212 208 201 178 193 187 164 125 179 119 254 203 215 211 213 193 194 191
336 335 336 35 330 248 308 319 49 45 276 312 316 320 323 296 222 280 139 64 25 186 274 256 306 198 206 235 201 129 166 171 71 128 212 184 151 255 196 217 209 193 199 194 192
337 337 349 124 293 308 330 41 36 97 326 324 322 325 317 302 311 208 118 147 200 178 220 202 223 276 178 229 214 166 141 162 197 180 187 158 147 233 216 220 198 200 206 195 196
335 345 323 106 308 337 46 47 60 252 272 291 311 309 290 4 293 328 180 184 220 233 11 170 201 179 177 199 171 186 171 142 152 151 144 109 217 242 226 216 216 224 210 201 194
352 349 7 306 324 46 65 50 205 241 324 317 314 306 309 327 331 319 230 213 168 177 184 263 219 128 160 152 152 148 198 140 115 78 90 195 286 291 249 272 219 234 210 231 211
30 14 290 325 346 55 70 281 251 227 310 317 292 5 312 331 338 336 332 283 203 194 175 227 115 131 130 120 61 154 158 95 38 118 98 352 285 230 228 234 339 274 231 225 201
52 27 266 343 46 44 100 242 286 270 303 241 275 292 279 319 316 315 357 40 352 163 112 163 104 186 117 213 148 98 126 55 103 90 138 141 256 223 279 284 269 283 274 228 199
61 24 297 13 47 46 345 264 289 287 320 294 264 248 300 318 301 308 333 305 349 11 190 195 160 160 96 127 77 96 144 130 130 240 85 129 293 27 292 288 304 289 270 251 192
62 267 323 68 80 329 314 301 276 310 314 345 296 355 316 306 323 330 321 312 359 6 203 188 6 87 93 38 32 98 124 110 108 108 199 107 256 80 7 47 30 49 352 7 139
58 3 326 30 121 129 320 306 322 297 285 341 277 334 329 314 300 306 305 324 322 343 354 138 71 74 153 196 135 113 36 147 116 109 156 207 185 354 6 35 42 33 38 62 102
36 270 198 319 325 359 301 275 315 344 308 323 319 359 339 302 317 343 335 313 338 358 27 36 70 96 11 71 109 130 131 174 142 161 169 216 210 214 64 26 23 66 63 103 108
89 47 352 281 309 335 356 301 308 321 263 302 337 324 318 290 346 326 323 329 344 340 342 332 64 11 39 89 154 118 141 282 136 137 123 158 245 219 84 99 50 82 98 128 128
317 356 71 297 344 46 289 324 293 327 288 267 318 320 326 351 312 282 264 268 276 303 327 352 63 61 357 54 84 61 183 189 157 183 148 200 214 156 104 210 327 131 142 174 156